TimeMST,TemperatureF,Dew PointF,Humidity,Sea Level PressureIn,VisibilityMPH,Wind Direction,Wind SpeedMPH,Gust SpeedMPH,PrecipitationIn,Events,Conditions,WindDirDegrees,DateUTC
12:56 AM,-5.1,-9.0,83,30.26,-9999.0,Calm,Calm,-,N/A,,Unknown,0,2012-12-09 07:56:00
1:56 AM,-5.1,-9.9,80,30.27,-9999.0,Calm,Calm,-,N/A,,Unknown,0,2012-12-09 08:56:00
2:56 AM,-6.0,-9.9,83,30.30,-9999.0,Calm,Calm,-,N/A,,Unknown,0,2012-12-09 09:56:00
3:56 AM,-6.0,-11.0,79,30.30,-9999.0,Calm,Calm,-,N/A,,Unknown,0,2012-12-09 10:56:00
4:56 AM,-7.1,-11.9,79,30.34,-9999.0,Calm,Calm,-,N/A,,Unknown,0,2012-12-09 11:56:00
5:56 AM,-9.9,-15.0,78,30.39,-9999.0,West,3.5,-,N/A,,Unknown,280,2012-12-09 12:56:00
6:56 AM,-11.0,-16.1,78,30.43,-9999.0,NW,3.5,-,N/A,,Unknown,310,2012-12-09 13:56:00
7:56 AM,-11.0,-16.1,78,30.48,-9999.0,WNW,3.5,-,N/A,,Unknown,300,2012-12-09 14:56:00
8:56 AM,-8.0,-11.9,83,30.50,-9999.0,Calm,Calm,-,N/A,,Unknown,0,2012-12-09 15:56:00
9:56 AM,3.0,-0.0,87,30.44,-9999.0,Calm,Calm,-,N/A,,Unknown,0,2012-12-09 16:56:00
10:56 AM,8.1,1.9,76,30.44,-9999.0,Calm,Calm,-,N/A,,Unknown,0,2012-12-09 17:56:00
11:56 AM,10.0,-0.0,64,30.39,-9999.0,Calm,Calm,-,0.01,,Unknown,0,2012-12-09 18:56:00
12:56 PM,9.0,-0.9,64,30.41,-9999.0,Variable,5.8,-,N/A,,Unknown,0,2012-12-09 19:56:00
1:56 PM,8.1,-2.0,64,30.40,-9999.0,Variable,3.5,-,N/A,,Unknown,0,2012-12-09 20:56:00
2:56 PM,9.0,-0.9,64,30.38,-9999.0,Variable,4.6,-,N/A,,Unknown,0,2012-12-09 21:56:00
3:56 PM,7.0,-2.0,67,30.40,-9999.0,Variable,4.6,-,N/A,,Unknown,0,2012-12-09 22:56:00
4:56 PM,7.0,-0.0,73,30.42,-9999.0,Calm,Calm,-,N/A,,Unknown,0,2012-12-09 23:56:00
5:56 PM,7.0,1.0,77,30.44,-9999.0,Calm,Calm,-,N/A,,Unknown,0,2012-12-10 00:56:00
6:56 PM,7.0,-0.9,70,30.43,-9999.0,Variable,5.8,-,N/A,,Unknown,0,2012-12-10 01:56:00
7:56 PM,7.0,-0.9,70,30.43,-9999.0,Variable,5.8,-,N/A,,Unknown,0,2012-12-10 02:56:00
8:56 PM,7.0,-0.9,70,30.41,-9999.0,West,3.5,-,N/A,,Unknown,270,2012-12-10 03:56:00
9:56 PM,8.1,1.0,73,30.32,-9999.0,Variable,4.6,-,N/A,,Unknown,0,2012-12-10 04:56:00
10:56 PM,8.1,3.0,80,30.28,-9999.0,Calm,Calm,-,N/A,,Unknown,0,2012-12-10 05:56:00
11:56 PM,9.0,3.0,77,30.23,-9999.0,Variable,3.5,-,N/A,,Unknown,0,2012-12-10 06:56:00